FENGYUN 1C DEB

Satellite information

Favourite Embed

Satellite Type and Status

DEBRISIN ORBIT

Key statistics

Satellite FENGYUN 1C DEB at a glance.

Uptime

9494

Days in orbit

Revolutions

≈ 13.7

Per day

Orbit

SSO

Sun Synchronous Orbit

Inclination

100.8

Latest

Satellite identification and parameters

Extended collection of information and parameters for FENGYUN 1C DEB.

Object identification

Identified? True

Debris? True

Object name: FENGYUN 1C DEB

International designator: 1999-025CXG

Object number (NORAD): 32315

Object ID (CCSDS): 32315

Country: PEOPLES REPUBLIC OF CHINA (PRC)

Current information (Y/N): Y

RCS size: SMALL

Orbital parameters

Period: 105.412 minutes

Inclination: 100.7778 deg

SMA: 7391.847 km

Apoapsis: 1182.428 km

Periapsis: 844.996 km

RAAN: 241.387 deg

Eccentricy: 0.0228246

Argument of periapsis: 302.3914 deg

Mean anomaly: 55.5323 deg

Mean motion: 13.66071034 rev/day

Mean motion (dot): 0.00000191 rev/day2

B* drag term: 0.00025001 1/REarth

Two-line elements (TLE)

Creation date: May 3, 2025, 5:28 p.m.

Reference frame: TEME

Reference center: EARTH

Epoch: May 3, 2025, 1:26 p.m. UTC

TLE line 0: 0 FENGYUN 1C DEB

TLE line 1: 1 32315U 99025CXG 25123.55990128 .00000191 00000-0 25001-3 0 9993

TLE line 2: 2 32315 100.7778 241.3870 0228246 302.3914 55.5323 13.66071034580419

Live tracking on map

Real-time ground track for satellite FENGYUN 1C DEB.

In-orbit conjunctions

A list of the most updated potential collisions computed for object FENGYUN 1C DEB.

Target Orbit TCA Probability of collision Miss distance Type
COSMOS 374 DEB LEO 2024-06-19 09:24:45 0.0001662326 267.0 (m) DEBRIS

Associated space launch

Chinese polar orbiting meteorological satellite

FENGYUN 1C DEB was lifted into orbit during the mission ‘Long March 4B | Feng Yun 1C’, on board a Long March 4B space rocket.

The launch took place on May 10, 1999, 1:33 a.m. from Launch Complex 7.

For more information about the launch, click the button.

Launch to space Long March 4B | Feng Yun 1C
Long March 4B | Feng Yun 1C

Agency: N/A

Status: Launch Successful

Launch date: May 10, 1999, 1:33 a.m. UTC

Rocket: Long March 4B

Launch pad: Launch Complex 7

Location: Taiyuan Satellite Launch Center, People's Republic of China

...

Latest news about this satellite

There are no fresh news available about this satellite. Check back as we update our databases every day.


Newsletter sign-up

Weekly statistics, charts and insights to help you stay on top of the space industry.